Location: Unspecified
(0.0000°N, 1.0000°E)
Time: 23:45:41
(UTC+01:00)

Amateur Radio Satellites - All Passes

Search period start: 27 February 2017 23:15
Search period end: 28 February 2017 23:15
Location: Unspecified, 0.0000°N, 1.0000°E

Satellite Date Start Highest point End Downlink Frequencies (MHz)
Time Altitude Azimuth
EO-79 27 Feb 23:22:16 23:23:36 11° 102° (ESE) 23:24:56 145.935-145.965
YUBILEINY 27 Feb 23:32:29 23:40:24 41° 267° (W) 23:48:24 435.215
NANOSAT C BR1 27 Feb 23:36:12 23:38:57 17° 102° (ESE) 23:41:43 145.865
AIST 2D 27 Feb 23:38:22 23:41:38 37° 101° (E) 23:44:55 435.315
JUGNU 27 Feb 23:38:27 23:39:31 10° 6° (N) 23:40:36 437.505
POLYITAN 1 27 Feb 23:38:42 23:41:54 21° 102° (ESE) 23:45:06 437.675
QB50P2 27 Feb 23:41:27 23:44:58 25° 102° (ESE) 23:48:29 145.880/145.840
ESTCUBE 1 27 Feb 23:46:51 23:51:14 49° 78° (ENE) 23:55:35 437.505/2401.250
LO-87 27 Feb 23:58:27 00:01:40 32° 258° (WSW) 00:04:52 145.935 - 145.965
VELOX 1 28 Feb 00:02:36 00:05:36 18° 78° (ENE) 00:08:35 145.980
50 SAT 28 Feb 00:17:26 00:19:28 15° 79° (ENE) 00:21:28 437.505
FO-29 28 Feb 00:32:42 00:37:08 19° 286° (WNW) 00:41:16 435.910
DUCHIFAT 1 28 Feb 00:41:07 00:45:15 56° 281° (WNW) 00:49:24 145.980
EO-79 28 Feb 00:55:27 00:59:05 27° 282° (WNW) 01:02:43 145.935-145.965
NANOSAT C BR1 28 Feb 01:11:26 01:14:24 19° 282° (WNW) 01:17:22 145.865
POLYITAN 1 28 Feb 01:14:56 01:17:24 15° 282° (WNW) 01:19:54 437.675
QB50P2 28 Feb 01:18:40 01:20:29 12° 282° (WNW) 01:22:17 145.880/145.840
DX 1 28 Feb 01:20:24 01:24:45 83° 75° (ENE) 01:29:03 434.975-435.025
JUGNU 28 Feb 01:25:17 01:29:23 19° 15° (NNE) 01:33:31 437.505
SPROUT 28 Feb 01:26:26 01:30:15 33° 258° (WSW) 01:34:04 437.525
UKube-1 28 Feb 01:27:18 01:31:34 67° 79° (ENE) 01:35:49 .
BUGSAT 1 28 Feb 01:27:45 01:31:49 46° 282° (WNW) 01:35:52 437.445
NO-84 28 Feb 01:34:25 01:37:06 16° 58° (ENE) 01:39:47 435.350 FM
VELOX 1 28 Feb 01:38:40 01:41:46 19° 257° (WSW) 01:44:52 145.980
Oscar 19 28 Feb 01:43:49 01:48:45 48° 103° (ESE) 01:53:42 437.125/150
50 SAT 28 Feb 01:50:34 01:52:18 13° 258° (WSW) 01:54:02 437.505
AO-85 28 Feb 01:50:48 01:53:04 13° 114° (ESE) 01:55:16 145.980
SRMSAT 28 Feb 02:30:18 02:32:22 12° 8° (N) 02:34:26 437.500
ITUPSAT 1 28 Feb 02:33:11 02:36:10 16° 77° (ENE) 02:39:08 437.325
PCSat 28 Feb 02:34:32 02:39:27 35° 71° (ENE) 02:44:21 145.827
BEESAT 28 Feb 02:37:34 02:40:57 19° 78° (ENE) 02:44:19 436.000
Gurwin Techsat 1B 28 Feb 02:49:42 02:54:54 58° 283° (WNW) 03:00:08 435.225
AO-7 28 Feb 03:08:56 03:15:29 26° 107° (ESE) 03:22:01 .
NO-84 28 Feb 03:10:44 03:14:38 30° 238° (WSW) 03:18:31 435.350 FM
JUGNU 28 Feb 03:13:04 03:18:44 46° 21° (NNE) 03:24:26 437.505
AO-85 28 Feb 03:28:44 03:33:23 37° 291° (WNW) 03:37:46 145.980
RS-15 28 Feb 03:53:35 04:05:02 55° 69° (ENE) 04:15:53 29.354- 29.394
ITAMSAT 1 28 Feb 04:02:22 04:07:32 69° 283° (WNW) 04:12:43 435.822/435.867
ITUPSAT 1 28 Feb 04:09:46 04:13:43 26° 257° (WSW) 04:17:39 437.325
MOZHAYETS 4 28 Feb 04:10:29 04:15:08 86° 261° (W) 04:19:46
BEESAT 28 Feb 04:14:49 04:18:27 22° 257° (WSW) 04:22:04 436.000
SRMSAT 28 Feb 04:17:45 04:22:21 22° 16° (NNE) 04:26:56 437.500
PCSat 28 Feb 04:19:37 04:22:34 15° 250° (WSW) 04:25:32 145.827
KKS-1 28 Feb 04:22:45 04:26:09 22° 78° (ENE) 04:29:32 437.445
BEESAT 3 28 Feb 04:38:40 04:42:24 52° 111° (ESE) 04:46:08 437.485
STARS 28 Feb 04:49:31 04:52:27 18° 78° (ENE) 04:55:23 437.465
ISS 28 Feb 04:59:53 05:03:08 68° 125° (SE) 05:06:23 437.550
AO-7 28 Feb 05:00:17 05:07:53 41° 286° (WNW) 05:15:31 .
JUGNU 28 Feb 05:01:54 05:07:48 64° 201° (SSW) 05:13:45 437.505
CUBESAT XI-V 28 Feb 05:17:15 05:21:56 71° 78° (ENE) 05:26:35 437.345
Tancredo 1 28 Feb 05:18:39 05:21:49 50° 306° (NW) 05:24:56 437.200
BEESAT 2 28 Feb 05:22:57 05:26:48 72° 112° (ESE) 05:30:41 435.950
M-CUBED/EXP-1 PRIME 28 Feb 05:55:46 05:59:18 73° 75° (ENE) 06:02:38 437.505
KKS-1 28 Feb 05:59:46 06:02:27 16° 258° (WSW) 06:05:06 437.445
SRMSAT 28 Feb 06:05:56 06:11:48 56° 21° (NNE) 06:17:41 437.500
RS-15 28 Feb 06:08:01 06:16:55 26° 249° (WSW) 06:25:36 29.354- 29.394
DOVE 4 28 Feb 06:09:52 06:14:30 33° 102° (ESE) 06:19:14 437.250
STARS 28 Feb 06:25:27 06:28:32 19° 258° (WSW) 06:31:36 437.465
KAITUO 1B 28 Feb 06:29:19 06:32:39 32° 101° (E) 06:35:58 145.475/437.950
XW-2F 28 Feb 06:38:29 06:42:11 60° 101° (ESE) 06:45:52 145.980 - 146.000
XW-2D 28 Feb 06:44:51 06:48:36 86° 100° (E) 06:52:22 145.860 - 145.880
XW-2B 28 Feb 06:49:58 06:53:43 82° 281° (W) 06:57:29 145.730 - 145.750
JUGNU 28 Feb 06:52:12 06:57:03 25° 197° (SSW) 07:01:55 437.505
STRAND 1 28 Feb 06:53:16 06:55:07 12° 77° (ENE) 06:56:55 437.568
XW-2C 28 Feb 06:58:48 07:02:29 55° 281° (W) 07:06:10 145.795 - 145.815
NUDT-PHONESAT 28 Feb 07:00:22 07:04:03 70° 281° (W) 07:07:44 437.300
CUTE-I 28 Feb 07:09:59 07:15:16 64° 283° (WNW) 07:20:34 437.470
CUTE 1.7 + AOD 2 28 Feb 07:13:51 07:14:50 11° 102° (ESE) 07:15:50 437.475
LilacSat-2 28 Feb 07:19:18 07:22:25 25° 281° (WNW) 07:25:32 437.200
XW-2A 28 Feb 07:28:27 07:31:27 29° 101° (E) 07:34:26 145.665 - 145.685
DOVE 4 28 Feb 07:48:56 07:51:55 15° 281° (W) 07:54:56 437.250
SRMSAT 28 Feb 07:55:11 08:01:02 54° 201° (SSW) 08:06:53 437.500
CUBEBUG 2 28 Feb 08:00:08 08:03:32 21° 101° (E) 08:06:53 437.445
SEEDS 28 Feb 08:02:45 08:06:32 35° 102° (ESE) 08:10:20 437.485
SO-50 28 Feb 08:19:09 08:23:09 32° 68° (ENE) 08:27:10 436.795
HO-68 28 Feb 08:19:51 08:27:01 86° 285° (WNW) 08:34:12 435.675
STRAND 1 28 Feb 08:29:14 08:33:59 40° 258° (WSW) 08:38:45 437.568
UWE-3 28 Feb 08:30:49 08:34:41 29° 101° (E) 08:38:30 435.000/436.395/437.385
JUGNU 28 Feb 08:44:15 08:46:48 13° 189° (S) 08:49:22 437.505
ZACube-1 28 Feb 08:45:31 08:48:57 23° 101° (E) 08:52:20 437.345
CUTE 1.7 + AOD 2 28 Feb 08:46:50 08:50:23 27° 281° (WNW) 08:53:58 437.475
O/OREOS (USA 219) 28 Feb 08:58:35 09:00:45 13° 75° (ENE) 09:02:55 437.305
AAUSAT CUBESAT 2 28 Feb 09:18:32 09:22:22 39° 281° (W) 09:26:13 437.432
AO-73 28 Feb 09:31:15 09:35:37 84° 278° (W) 09:39:54 145.935
Oscar 11 28 Feb 09:34:02 09:38:20 89° 122° (ESE) 09:42:38 .
CUBEBUG 2 28 Feb 09:36:42 09:39:52 18° 282° (WNW) 09:43:00 437.445
SRMSAT 28 Feb 09:45:59 09:50:30 22° 196° (SSW) 09:55:01 437.500
PRISM 28 Feb 09:58:29 10:02:35 66° 78° (ENE) 10:06:37 437.425
SO-50 28 Feb 10:01:58 10:03:23 11° 247° (WSW) 10:04:47 436.795
UWE-3 28 Feb 10:09:07 10:10:50 12° 282° (WNW) 10:12:32 435.000/436.395/437.385
YUBILEINY 28 Feb 10:09:09 10:17:37 51° 93° (E) 10:26:02 435.215
FO-29 28 Feb 10:18:36 10:23:13 20° 74° (ENE) 10:28:10 435.910
ZACube-1 28 Feb 10:22:34 10:24:57 14° 282° (WNW) 10:27:19 437.345
DELFI C3 28 Feb 10:24:20 10:28:14 71° 281° (WNW) 10:32:11 145.870
O/OREOS (USA 219) 28 Feb 10:36:01 10:39:52 27° 256° (WSW) 10:43:45 437.305
TIGRISAT 28 Feb 11:03:16 11:07:31 52° 259° (WSW) 11:11:50 435.000
UNISAT 6 28 Feb 11:03:59 11:08:10 45° 258° (WSW) 11:12:27 437.425
AIST 2D 28 Feb 11:25:00 11:27:49 22° 79° (E) 11:30:36 435.315
EO-79 28 Feb 11:27:30 11:29:36 14° 78° (ENE) 11:31:44 145.935-145.965
SRMSAT 28 Feb 11:38:35 11:40:30 11° 188° (S) 11:42:25 437.500
NANOSAT C BR1 28 Feb 11:41:31 11:44:36 20° 78° (ENE) 11:47:41 145.865
POLYITAN 1 28 Feb 11:44:37 11:48:05 25° 78° (ENE) 11:51:33 437.675
LO-87 28 Feb 11:46:05 11:49:38 55° 281° (W) 11:53:12 145.935 - 145.965
QB50P2 28 Feb 11:47:29 11:51:12 30° 78° (ENE) 11:54:55 145.880/145.840
SPROUT 28 Feb 12:00:04 12:01:43 12° 102° (ESE) 12:03:21 437.525
ESTCUBE 1 28 Feb 12:00:41 12:05:08 78° 100° (E) 12:09:38 437.505/2401.250
FO-29 28 Feb 12:01:58 12:07:47 40° 259° (W) 12:14:18 435.910
YUBILEINY 28 Feb 12:08:05 12:13:59 20° 273° (W) 12:19:56 435.215
VELOX 1 28 Feb 12:13:17 12:16:59 26° 102° (ESE) 12:20:41 145.980
JUGNU 28 Feb 12:23:57 12:27:08 15° 169° (SSE) 12:30:19 437.505
DUCHIFAT 1 28 Feb 12:46:35 12:50:35 46° 258° (WSW) 12:54:36 145.980
EO-79 28 Feb 13:01:49 13:05:06 22° 258° (WSW) 13:08:24 145.935-145.965
NANOSAT C BR1 28 Feb 13:17:36 13:20:03 15° 258° (WSW) 13:22:31 145.865
POLYITAN 1 28 Feb 13:21:56 13:23:36 12° 258° (WSW) 13:25:17 437.675
DX 1 28 Feb 13:29:52 13:34:12 72° 282° (WNW) 13:38:34 434.975-435.025
BUGSAT 1 28 Feb 13:31:00 13:34:46 40° 258° (WSW) 13:38:32 437.445
SPROUT 28 Feb 13:33:43 13:37:20 27° 282° (WNW) 13:40:58 437.525
50 SAT 28 Feb 13:35:06 13:37:51 22° 281° (WNW) 13:40:37 437.505
UKube-1 28 Feb 13:35:33 13:39:52 88° 101° (E) 13:44:12 .
Gurwin Techsat 1B 28 Feb 13:49:24 13:53:45 26° 77° (ENE) 13:58:06 435.225
VELOX 1 28 Feb 13:51:00 13:53:09 13° 282° (WNW) 13:55:19 145.980
AO-85 28 Feb 14:02:08 14:04:56 18° 70° (ENE) 14:07:51 145.980
JUGNU 28 Feb 14:11:33 14:16:45 31° 161° (SSE) 14:21:54 437.505
Oscar 19 28 Feb 14:17:24 14:22:33 65° 257° (WSW) 14:27:39 437.125/150
ITUPSAT 1 28 Feb 14:54:10 14:58:21 31° 102° (ESE) 15:02:32 437.325
NO-84 28 Feb 14:57:04 14:59:20 21° 302° (WNW) 15:01:38 435.350 FM
BEESAT 28 Feb 14:58:23 15:02:44 36° 102° (ESE) 15:07:06 436.000
ITAMSAT 1 28 Feb 14:59:39 15:03:20 20° 77° (ENE) 15:07:00 435.822/435.867
PCSat 28 Feb 15:10:13 15:15:36 73° 289° (WNW) 15:20:58 145.827
SRMSAT 28 Feb 15:17:31 15:21:04 16° 167° (SSE) 15:24:37 437.500
Gurwin Techsat 1B 28 Feb 15:29:37 15:33:25 20° 257° (WSW) 15:37:13 435.225
AO-7 28 Feb 15:34:05 15:41:54 44° 74° (ENE) 15:49:40 .
RS-15 28 Feb 15:35:12 15:45:47 45° 110° (ESE) 15:56:48 29.354- 29.394
AO-85 28 Feb 15:42:09 15:45:04 18° 246° (WSW) 15:48:09 145.980
JUGNU 28 Feb 15:59:57 16:05:53 82° 159° (SSE) 16:11:47 437.505
MOZHAYETS 4 28 Feb 16:27:21 16:31:45 49° 282° (WNW) 16:36:09
BEESAT 3 28 Feb 16:30:27 16:34:19 54° 68° (ENE) 16:38:09 437.485
ITUPSAT 1 28 Feb 16:33:44 16:35:54 13° 283° (WNW) 16:38:05 437.325
ISS 28 Feb 16:33:50 16:36:52 37° 55° (NE) 16:39:55 437.550
KKS-1 28 Feb 16:34:29 16:38:29 33° 102° (ESE) 16:42:30 437.445
ITAMSAT 1 28 Feb 16:38:17 16:42:31 26° 257° (WSW) 16:46:45 435.822/435.867
BEESAT 28 Feb 16:39:01 16:40:14 11° 283° (WNW) 16:41:27 436.000
Tancredo 1 28 Feb 16:50:56 16:54:06 84° 51° (NE) 16:57:17 437.200
STARS 28 Feb 16:59:32 17:03:10 25° 102° (ESE) 17:06:49 437.465
SRMSAT 28 Feb 17:05:19 17:10:42 36° 161° (SSE) 17:16:06 437.500
BEESAT 2 28 Feb 17:16:00 17:19:59 77° 70° (ENE) 17:23:56 435.950
AO-7 28 Feb 17:27:49 17:34:16 25° 253° (WSW) 17:40:46 .
CUBESAT XI-V 28 Feb 17:35:28 17:40:00 64° 282° (WNW) 17:44:36 437.345
RS-15 28 Feb 17:48:02 17:57:47 33° 292° (WNW) 18:08:02 29.354- 29.394
JUGNU 28 Feb 17:49:36 17:54:57 36° 340° (NNW) 18:00:18 437.505
M-CUBED/EXP-1 PRIME 28 Feb 17:53:21 17:57:41 71° 106° (ESE) 18:02:17 437.505
CUTE-I 28 Feb 18:10:34 18:14:49 24° 77° (ENE) 18:19:03 437.470
KKS-1 28 Feb 18:13:43 18:14:46 11° 283° (WNW) 18:15:49 437.445
KAITUO 1B 28 Feb 18:21:54 18:25:03 25° 79° (ENE) 18:28:12 145.475/437.950
DOVE 4 28 Feb 18:31:16 18:35:26 55° 79° (ENE) 18:39:28 437.250
XW-2F 28 Feb 18:31:51 18:35:32 46° 79° (E) 18:39:12 145.980 - 146.000
STARS 28 Feb 18:36:59 18:39:14 14° 282° (WNW) 18:41:30 437.465
XW-2D 28 Feb 18:38:30 18:42:18 67° 80° (E) 18:46:07 145.860 - 145.880
XW-2B 28 Feb 18:43:37 18:47:26 78° 80° (E) 18:51:16 145.730 - 145.750
NUDT-PHONESAT 28 Feb 18:51:59 18:55:44 82° 79° (E) 18:59:29 437.300
XW-2C 28 Feb 18:52:25 18:56:13 73° 258° (WSW) 19:00:02 145.795 - 145.815
SRMSAT 28 Feb 18:54:01 18:59:58 83° 339° (NNW) 19:05:54 437.500
XW-2A 28 Feb 19:12:20 19:14:16 15° 79° (E) 19:16:13 145.665 - 145.685
LilacSat-2 28 Feb 19:13:20 19:16:46 31° 259° (WSW) 19:20:13 437.200
CUTE 1.7 + AOD 2 28 Feb 19:18:56 19:21:10 14° 78° (ENE) 19:23:24 437.475
STRAND 1 28 Feb 19:23:12 19:27:39 30° 103° (ESE) 19:32:05 437.568
JUGNU 28 Feb 19:40:57 19:44:24 16° 347° (NNW) 19:47:52 437.505
CUTE-I 28 Feb 19:50:36 19:54:34 22° 257° (WSW) 19:58:33 437.470
SEEDS 28 Feb 20:07:45 20:11:47 42° 79° (ENE) 20:15:48 437.485
HO-68 28 Feb 20:11:29 20:18:42 81° 76° (ENE) 20:25:52 435.675
CUBEBUG 2 28 Feb 20:11:49 20:15:30 28° 78° (ENE) 20:19:15 437.445
SO-50 28 Feb 20:31:14 20:35:58 64° 112° (ESE) 20:40:37 436.795
UWE-3 28 Feb 20:41:22 20:45:25 40° 78° (ENE) 20:49:34 435.000/436.395/437.385
SRMSAT 28 Feb 20:44:04 20:49:15 31° 341° (NNW) 20:54:26 437.500
XW-2A 28 Feb 20:45:36 20:46:47 11° 259° (W) 20:47:59 145.665 - 145.685
CUTE 1.7 + AOD 2 28 Feb 20:53:20 20:56:44 23° 258° (WSW) 21:00:08 437.475
ZACube-1 28 Feb 20:54:35 20:58:26 31° 78° (ENE) 21:02:20 437.345
STRAND 1 28 Feb 21:03:31 21:06:32 16° 283° (WNW) 21:09:34 437.568
O/OREOS (USA 219) 28 Feb 21:08:22 21:11:48 22° 105° (ESE) 21:15:12 437.305
AAUSAT CUBESAT 2 28 Feb 21:22:05 21:25:55 35° 258° (WSW) 21:29:44 437.432
AO-73 28 Feb 21:40:27 21:44:43 61° 258° (WSW) 21:49:05 145.935
Oscar 11 28 Feb 21:42:43 21:47:02 67° 258° (WSW) 21:51:20 .
UNISAT 6 28 Feb 21:43:28 21:45:10 12° 102° (ESE) 21:46:51 437.425
TIGRISAT 28 Feb 21:43:38 21:44:21 10° 102° (ESE) 21:45:04 435.000
CUBEBUG 2 28 Feb 21:50:30 21:51:52 11° 259° (W) 21:53:15 437.445
PRISM 28 Feb 22:00:55 22:05:00 72° 102° (ESE) 22:09:08 437.425
DELFI C3 28 Feb 22:22:44 22:26:43 75° 257° (WSW) 22:30:40 145.870
ZACube-1 28 Feb 22:33:37 22:34:27 10° 259° (WSW) 22:35:18 437.345
SRMSAT 28 Feb 22:35:51 22:38:59 14° 348° (NNW) 22:42:09 437.500
YUBILEINY 28 Feb 22:42:18 22:51:00 87° 267° (W) 22:59:44 435.215
O/OREOS (USA 219) 28 Feb 22:48:19 22:50:54 15° 284° (WNW) 22:53:30 437.305
